| time (UTC) | temp F | wind direction | speed MPH | gust MPH | rain 1hr in | rain 24hr in | rain mn in | humidity % | barometer mb |
| 20260502213543 | 56 | 155 | 0.0 | 5.0 | 0.00 | 0.04 | 0.04 | 92 | 1013.4 |
| 20260502213047 | 56 | 155 | 1.0 | 5.0 | 0.00 | 0.04 | 0.04 | 92 | 1013.5 |
| 20260502212543 | 56 | 156 | 2.0 | 5.0 | 0.00 | 0.04 | 0.04 | 92 | 1013.5 |
| 20260502212043 | 56 | 148 | 1.0 | 3.0 | 0.00 | 0.04 | 0.04 | 92 | 1013.7 |
| 20260502211555 | 56 | 142 | 1.0 | 3.0 | 0.00 | 0.04 | 0.04 | 92 | 1013.5 |
| 20260502211046 | 56 | 0 | 1.0 | 2.0 | 0.00 | 0.04 | 0.04 | 92 | 1013.6 |
| 20260502210546 | 57 | 0.0 | 2.0 | 0.00 | 0.04 | 0.04 | 92 | 1013.7 | |
| 20260502210049 | 57 | 142 | 0.0 | 3.0 | 0.00 | 0.04 | 0.04 | 92 | 1013.6 |
| 20260502205542 | 57 | 0 | 1.0 | 4.0 | 0.00 | 0.04 | 0.04 | 92 | 1013.6 |
| 20260502205043 | 57 | 0 | 1.0 | 4.0 | 0.00 | 0.04 | 0.04 | 92 | 1013.6 |
| 20260502204548 | 57 | 0 | 1.0 | 4.0 | 0.00 | 0.04 | 0.04 | 92 | 1013.7 |
| 20260502204043 | 57 | 146 | 1.0 | 5.0 | 0.00 | 0.04 | 0.04 | 92 | 1013.8 |
| 20260502203543 | 57 | 146 | 2.0 | 5.0 | 0.00 | 0.04 | 0.04 | 92 | 1013.8 |
| 20260502203050 | 57 | 156 | 0.0 | 1.0 | 0.00 | 0.04 | 0.04 | 92 | 1013.8 |
| 20260502202543 | 57 | 0.0 | 0.0 | 0.00 | 0.04 | 0.04 | 92 | 1013.8 | |
| 20260502202043 | 57 | 0.0 | 2.0 | 0.00 | 0.04 | 0.04 | 92 | 1013.8 | |
| 20260502201552 | 57 | 0 | 0.0 | 2.0 | 0.00 | 0.04 | 0.04 | 92 | 1013.7 |
| 20260502201043 | 57 | 0 | 0.0 | 2.0 | 0.00 | 0.04 | 0.04 | 91 | 1013.8 |
| 20260502200544 | 57 | 0 | 1.0 | 5.0 | 0.00 | 0.04 | 0.04 | 91 | 1013.9 |
| 20260502200055 | 57 | 156 | 1.0 | 5.0 | 0.00 | 0.04 | 0.04 | 91 | 1013.8 |
| 20260502195542 | 57 | 162 | 2.0 | 5.0 | 0.00 | 0.04 | 0.04 | 91 | 1013.7 |
| 20260502195042 | 57 | 142 | 1.0 | 4.0 | 0.00 | 0.04 | 0.04 | 91 | 1013.7 |
| 20260502194548 | 57 | 145 | 1.0 | 4.0 | 0.00 | 0.04 | 0.04 | 91 | 1013.8 |
| 20260502194045 | 57 | 144 | 1.0 | 4.0 | 0.00 | 0.04 | 0.04 | 91 | 1013.7 |
| 20260502193543 | 57 | 0 | 1.0 | 3.0 | 0.00 | 0.04 | 0.04 | 91 | 1013.8 |
| 20260502193048 | 57 | 150 | 1.0 | 5.0 | 0.00 | 0.04 | 0.04 | 91 | 1013.9 |
| 20260502192542 | 57 | 150 | 2.0 | 5.0 | 0.00 | 0.04 | 0.04 | 91 | 1013.7 |
| 20260502192043 | 57 | 142 | 1.0 | 4.0 | 0.00 | 0.04 | 0.04 | 91 | 1013.7 |
| 20260502191558 | 57 | 142 | 1.0 | 4.0 | 0.00 | 0.04 | 0.04 | 91 | 1013.7 |
| 20260502191044 | 57 | 146 | 1.0 | 3.0 | 0.00 | 0.04 | 0.04 | 91 | 1013.7 |
| 20260502190543 | 57 | 0 | 1.0 | 3.0 | 0.00 | 0.04 | 0.04 | 91 | 1013.7 |
| 20260502190049 | 0 | 0.0 | 0.0 | 0.00 | 0.04 | 0.04 | 1013.8 | ||
| 20260502185546 | 57 | 0.0 | 3.0 | 0.00 | 0.04 | 0.04 | 91 | 1013.9 | |
| 20260502185043 | 57 | 148 | 0.0 | 4.0 | 0.00 | 0.04 | 0.04 | 91 | 1013.8 |
| 20260502184550 | 57 | 147 | 1.0 | 4.0 | 0.00 | 0.04 | 0.04 | 91 | 1013.9 |
| 20260502184043 | 57 | 0 | 2.0 | 3.0 | 0.00 | 0.04 | 0.04 | 91 | 1013.8 |
| 20260502183543 | 57 | 0 | 0.0 | 3.0 | 0.00 | 0.04 | 0.04 | 91 | 1013.9 |
| 20260502183051 | 0 | 1.0 | 2.0 | 0.00 | 0.04 | 0.04 | 90 | 1013.8 | |
| 20260502182543 | 0 | 135 | 2.0 | 2.0 | 0.00 | 0.04 | 0.04 | 90 | 1013.9 |
| 20260502182042 | 0 | 0.0 | 0.0 | 0.00 | 0.04 | 0.04 | 1014.0 | ||
| 20260502181553 | 0 | 0.0 | 0.0 | 0.00 | 0.04 | 0.04 | 1014.1 | ||
| 20260502181042 | 0 | 0.0 | 0.0 | 0.00 | 0.04 | 0.04 | 1014.2 | ||
| 20260502180542 | 58 | 0.0 | 1.0 | 0.00 | 0.04 | 0.04 | 90 | 1014.1 | |
| 20260502164044 | 59 | 196 | 2.0 | 6.0 | 0.01 | 0.01 | 0.01 | 85 | 1015.2 |
| 20260502163544 | 59 | 187 | 3.0 | 6.0 | 0.01 | 0.01 | 0.01 | 84 | 1015.1 |
| 20260502163108 | 60 | 193 | 2.0 | 14.0 | 0.00 | 0.00 | 0.00 | 83 | 1015.2 |
| 20260502162545 | 60 | 225 | 5.0 | 14.0 | 0.00 | 0.00 | 0.00 | 82 | 1015.2 |
| 20260502162044 | 62 | 226 | 6.0 | 14.0 | 0.00 | 0.00 | 0.00 | 79 | 1015.1 |
| 20260502161557 | 64 | 209 | 3.0 | 14.0 | 0.00 | 0.00 | 0.00 | 74 | 1015.2 |
| 20260502161044 | 66 | 209 | 6.0 | 14.0 | 0.00 | 0.00 | 0.00 | 70 | 1015.1 |
| 20260502160543 | 68 | 162 | 3.0 | 11.0 | 0.00 | 0.00 | 0.00 | 64 | 1014.9 |
| 20260502152042 | 69 | 165 | 2.0 | 7.0 | 0.00 | 0.00 | 0.00 | 54 | 1015.3 |
| 20260502151556 | 69 | 183 | 1.0 | 8.0 | 0.00 | 0.00 | 0.00 | 54 | 1015.3 |
| 20260502151043 | 69 | 156 | 3.0 | 8.0 | 0.00 | 0.00 | 0.00 | 54 | 1015.4 |
| 20260502150542 | 69 | 159 | 2.0 | 6.0 | 0.00 | 0.00 | 0.00 | 53 | 1015.6 |
| 20260502150105 | 69 | 121 | 0.0 | 6.0 | 0.00 | 0.00 | 0.00 | 54 | 1015.6 |
| 20260502130542 | 68 | 205 | 3.0 | 8.0 | 0.00 | 0.00 | 0.00 | 57 | 1017.4 |
| 20260502130108 | 68 | 184 | 1.0 | 5.0 | 0.00 | 0.00 | 0.00 | 58 | 1017.5 |
| 20260502123543 | 66 | 113 | 2.0 | 8.0 | 0.00 | 0.00 | 0.00 | 61 | 1017.7 |
| 20260502123100 | 66 | 98 | 2.0 | 8.0 | 0.00 | 0.00 | 0.00 | 61 | 1017.7 |
| 20260502122544 | 66 | 92 | 2.0 | 8.0 | 0.00 | 0.00 | 0.00 | 61 | 1017.9 |
| 20260502122044 | 66 | 110 | 2.0 | 9.0 | 0.00 | 0.00 | 0.00 | 60 | 1017.9 |
| 20260502121559 | 65 | 150 | 2.0 | 9.0 | 0.00 | 0.00 | 0.00 | 62 | 1017.9 |
| 20260502121046 | 65 | 236 | 2.0 | 7.0 | 0.00 | 0.00 | 0.00 | 60 | 1017.9 |
| 20260502120545 | 64 | 200 | 0.0 | 6.0 | 0.00 | 0.00 | 0.00 | 62 | 1018.1 |
| 20260502115544 | 64 | 105 | 2.0 | 7.0 | 0.00 | 0.00 | 0.00 | 61 | 1018.1 |
| 20260502115047 | 64 | 129 | 2.0 | 6.0 | 0.00 | 0.00 | 0.00 | 61 | 1018.3 |
| 20260502114552 | 64 | 145 | 1.0 | 8.0 | 0.00 | 0.00 | 0.00 | 62 | 1018.4 |
| 20260502114044 | 64 | 83 | 1.0 | 8.0 | 0.00 | 0.00 | 0.00 | 60 | 1018.3 |
| 20260502113544 | 64 | 121 | 2.0 | 8.0 | 0.00 | 0.00 | 0.00 | 60 | 1018.4 |
| 20260502113057 | 63 | 0 | 2.0 | 5.0 | 0.00 | 0.00 | 0.00 | 61 | 1018.4 |
| 20260502112544 | 63 | 143 | 0.0 | 7.0 | 0.00 | 0.00 | 0.00 | 59 | 1018.4 |
| 20260502112044 | 63 | 143 | 2.0 | 7.0 | 0.00 | 0.00 | 0.00 | 59 | 1018.7 |
| 20260502111553 | 63 | 115 | 0.0 | 5.0 | 0.00 | 0.00 | 0.00 | 62 | 1018.7 |
| 20260502111045 | 63 | 163 | 1.0 | 5.0 | 0.00 | 0.00 | 0.00 | 62 | 1018.8 |
| 20260502110544 | 62 | 164 | 2.0 | 6.0 | 0.00 | 0.00 | 0.00 | 64 | 1018.9 |
| 20260502110052 | 62 | 184 | 2.0 | 6.0 | 0.00 | 0.00 | 0.00 | 66 | 1019.0 |
| 20260502105545 | 62 | 234 | 2.0 | 7.0 | 0.00 | 0.00 | 0.00 | 67 | 1018.9 |
| 20260502105044 | 62 | 232 | 3.0 | 7.0 | 0.00 | 0.00 | 0.00 | 68 | 1019.1 |
| 20260502104552 | 62 | 223 | 2.0 | 4.0 | 0.00 | 0.00 | 0.00 | 68 | 1019.1 |
| 20260502104044 | 62 | 261 | 2.0 | 4.0 | 0.00 | 0.00 | 0.00 | 68 | 1019.3 |
| 20260502103544 | 61 | 0 | 0.0 | 4.0 | 0.00 | 0.00 | 0.00 | 70 | 1019.3 |
| 20260502103051 | 61 | 138 | 1.0 | 4.0 | 0.00 | 0.00 | 0.00 | 71 | 1019.4 |
| 20260502102545 | 60 | 0 | 1.0 | 4.0 | 0.00 | 0.00 | 0.00 | 72 | 1019.4 |
| 20260502102044 | 60 | 196 | 0.0 | 4.0 | 0.00 | 0.00 | 0.00 | 71 | 1019.4 |
| 20260502101555 | 59 | 0 | 1.0 | 4.0 | 0.00 | 0.00 | 0.00 | 71 | 1019.6 |
| 20260502101048 | 59 | 0 | 2.0 | 5.0 | 0.00 | 0.00 | 0.00 | 73 | 1019.6 |
| 20260502100544 | 59 | 199 | 1.0 | 5.0 | 0.00 | 0.00 | 0.00 | 75 | 1019.7 |
| 20260502091043 | 55 | 212 | 2.0 | 5.0 | 0.00 | 0.00 | 0.00 | 86 | 1020.1 |
| 20260502090544 | 54 | 204 | 2.0 | 5.0 | 0.00 | 0.00 | 0.00 | 86 | 1020.1 |
| 20260502080106 | 51 | 183 | 1.0 | 4.0 | 0.00 | 0.00 | 0.00 | 94 | 1020.3 |
| 20260502071044 | 49 | 0 | 0.0 | 5.0 | 0.00 | 0.00 | 0.00 | 95 | 1020.8 |
| 20260502070546 | 49 | 249 | 1.0 | 5.0 | 0.00 | 0.00 | 0.00 | 95 | 1020.8 |
| 20260502070054 | 49 | 246 | 2.0 | 4.0 | 0.00 | 0.00 | 0.00 | 95 | 1020.8 |
| 20260502065544 | 49 | 211 | 1.0 | 4.0 | 0.00 | 0.00 | 0.00 | 95 | 1020.9 |
| 20260502065045 | 49 | 0 | 2.0 | 4.0 | 0.00 | 0.00 | 0.00 | 95 | 1020.8 |
| 20260502064555 | 49 | 211 | 1.0 | 3.0 | 0.00 | 0.00 | 0.00 | 95 | 1020.7 |
| 20260502064043 | 49 | 0 | 1.0 | 3.0 | 0.00 | 0.00 | 0.00 | 95 | 1020.7 |
| 20260502063544 | 48 | 240 | 1.0 | 4.0 | 0.00 | 0.00 | 0.00 | 95 | 1020.7 |
| 20260502063104 | 48 | 240 | 0.0 | 4.0 | 0.00 | 0.00 | 0.00 | 95 | 1020.8 |
| 20260502062544 | 48 | 240 | 1.0 | 4.0 | 0.00 | 0.00 | 0.00 | 95 | 1020.8 |
| 20260502062045 | 48 | 229 | 1.0 | 4.0 | 0.00 | 0.00 | 0.00 | 95 | 1020.8 |
| 20260502061554 | 48 | 0 | 2.0 | 5.0 | 0.00 | 0.00 | 0.00 | 95 | 1020.8 |
| 20260502061043 | 48 | 229 | 2.0 | 4.0 | 0.00 | 0.00 | 0.00 | 95 | 1020.9 |
| 20260502060543 | 48 | 256 | 2.0 | 4.0 | 0.00 | 0.00 | 0.00 | 95 | 1020.8 |
| 20260502060054 | 48 | 246 | 1.0 | 4.0 | 0.00 | 0.00 | 0.00 | 95 | 1020.8 |
| 20260502055543 | 48 | 246 | 2.0 | 5.0 | 0.00 | 0.00 | 0.00 | 95 | 1020.8 |
| 20260502055044 | 48 | 235 | 2.0 | 5.0 | 0.00 | 0.00 | 0.00 | 95 | 1020.8 |
| 20260502054551 | 48 | 234 | 2.0 | 5.0 | 0.00 | 0.00 | 0.00 | 94 | 1020.8 |
| 20260502054044 | 48 | 238 | 2.0 | 4.0 | 0.00 | 0.00 | 0.00 | 94 | 1020.8 |
| 20260502053544 | 48 | 229 | 1.0 | 4.0 | 0.00 | 0.00 | 0.00 | 94 | 1020.8 |
| 20260502053103 | 48 | 248 | 1.0 | 4.0 | 0.00 | 0.00 | 0.00 | 94 | 1020.9 |
| 20260502052544 | 48 | 248 | 2.0 | 5.0 | 0.00 | 0.00 | 0.00 | 94 | 1020.9 |
| 20260502052047 | 48 | 232 | 1.0 | 5.0 | 0.00 | 0.00 | 0.00 | 94 | 1020.8 |
| 20260502051554 | 48 | 229 | 2.0 | 5.0 | 0.00 | 0.00 | 0.00 | 94 | 1020.8 |
| 20260502051043 | 48 | 255 | 2.0 | 5.0 | 0.00 | 0.00 | 0.00 | 94 | 1020.8 |
| 20260502050543 | 48 | 234 | 2.0 | 5.0 | 0.00 | 0.00 | 0.00 | 94 | 1020.8 |
| 20260502050054 | 48 | 253 | 2.0 | 5.0 | 0.00 | 0.00 | 0.00 | 94 | 1020.7 |
| 20260502045544 | 48 | 248 | 2.0 | 5.0 | 0.00 | 0.00 | 0.00 | 94 | 1020.7 |
| 20260502045043 | 48 | 232 | 0.0 | 7.0 | 0.00 | 0.00 | 0.00 | 94 | 1020.7 |
| 20260502044553 | 48 | 233 | 1.0 | 8.0 | 0.00 | 0.00 | 0.00 | 93 | 1020.8 |
| 20260502044043 | 48 | 234 | 4.0 | 8.0 | 0.00 | 0.00 | 0.00 | 93 | 1020.8 |
| 20260502043545 | 48 | 222 | 1.0 | 7.0 | 0.00 | 0.00 | 0.00 | 93 | 1020.7 |
| 20260502043056 | 48 | 242 | 2.0 | 6.0 | 0.00 | 0.00 | 0.00 | 93 | 1020.7 |
| 20260502042543 | 48 | 256 | 2.0 | 6.0 | 0.00 | 0.00 | 0.00 | 93 | 1020.7 |
| 20260502042047 | 48 | 220 | 2.0 | 8.0 | 0.00 | 0.00 | 0.00 | 93 | 1020.8 |
| 20260502041555 | 48 | 243 | 3.0 | 8.0 | 0.00 | 0.00 | 0.00 | 93 | 1020.8 |
| 20260502041043 | 48 | 239 | 2.0 | 5.0 | 0.00 | 0.00 | 0.00 | 93 | 1020.8 |
| 20260502040544 | 49 | 246 | 3.0 | 5.0 | 0.00 | 0.00 | 0.00 | 92 | 1020.9 |
| 20260502040058 | 49 | 237 | 1.0 | 3.0 | 0.00 | 0.00 | 0.00 | 92 | 1020.8 |
| 20260502035546 | 49 | 236 | 1.0 | 3.0 | 0.00 | 0.00 | 0.00 | 92 | 1020.9 |
| 20260502035044 | 49 | 0 | 0.0 | 3.0 | 0.00 | 0.00 | 0.00 | 92 | 1020.9 |
| 20260502034558 | 49 | 235 | 1.0 | 4.0 | 0.00 | 0.00 | 0.00 | 92 | 1020.8 |
| 20260502034044 | 49 | 234 | 1.0 | 4.0 | 0.00 | 0.00 | 0.00 | 92 | 1020.9 |
| 20260502033543 | 49 | 234 | 1.0 | 4.0 | 0.00 | 0.00 | 0.00 | 92 | 1020.8 |
| 20260502033052 | 49 | 244 | 2.0 | 4.0 | 0.00 | 0.00 | 0.00 | 92 | 1020.9 |
| 20260502032543 | 49 | 243 | 1.0 | 4.0 | 0.00 | 0.00 | 0.00 | 92 | 1021.0 |
| 20260502032043 | 49 | 243 | 1.0 | 5.0 | 0.00 | 0.00 | 0.00 | 92 | 1021.0 |
| 20260502031552 | 50 | 246 | 1.0 | 5.0 | 0.00 | 0.00 | 0.00 | 91 | 1021.0 |
| 20260502031044 | 50 | 241 | 2.0 | 5.0 | 0.00 | 0.00 | 0.00 | 91 | 1021.0 |
| 20260502030544 | 50 | 203 | 1.0 | 7.0 | 0.00 | 0.00 | 0.00 | 91 | 1021.1 |
| 20260502030054 | 50 | 201 | 2.0 | 7.0 | 0.00 | 0.00 | 0.00 | 91 | 1021.1 |
| 20260502025543 | 50 | 214 | 4.0 | 6.0 | 0.00 | 0.00 | 0.00 | 91 | 1021.1 |
| 20260502025049 | 50 | 212 | 2.0 | 5.0 | 0.00 | 0.00 | 0.00 | 91 | 1021.1 |
| 20260502024549 | 50 | 210 | 2.0 | 5.0 | 0.00 | 0.00 | 0.00 | 91 | 1021.2 |
| 20260502024044 | 50 | 250 | 1.0 | 4.0 | 0.00 | 0.00 | 0.00 | 91 | 1021.2 |
| 20260502023544 | 50 | 221 | 0.0 | 3.0 | 0.00 | 0.00 | 0.00 | 91 | 1021.1 |
| 20260502023055 | 50 | 0 | 1.0 | 4.0 | 0.00 | 0.00 | 0.00 | 91 | 1021.3 |
| 20260502022543 | 51 | 215 | 1.0 | 4.0 | 0.00 | 0.00 | 0.00 | 90 | 1021.1 |
| 20260502022043 | 51 | 216 | 1.0 | 3.0 | 0.00 | 0.00 | 0.00 | 90 | 1021.1 |
| 20260502021554 | 51 | 217 | 1.0 | 3.0 | 0.00 | 0.00 | 0.00 | 90 | 1021.2 |
| 20260502021043 | 50 | 0.0 | 3.0 | 0.00 | 0.00 | 0.00 | 90 | 1021.2 | |
| 20260502020544 | 50 | 215 | 0.0 | 3.0 | 0.00 | 0.00 | 0.00 | 90 | 1021.2 |
| 20260502020053 | 50 | 0 | 0.0 | 3.0 | 0.00 | 0.00 | 0.00 | 90 | 1021.2 |
| 20260502015544 | 50 | 0 | 0.0 | 0.0 | 0.00 | 0.00 | 0.00 | 89 | 1021.2 |
| 20260502015044 | 50 | 0 | 0.0 | 0.0 | 0.00 | 0.00 | 0.00 | 89 | 1021.3 |
| 20260502014551 | 50 | 0 | 0.0 | 0.0 | 0.00 | 0.00 | 0.00 | 89 | 1021.2 |
| 20260502014043 | 50 | 0 | 0.0 | 0.0 | 0.00 | 0.00 | 0.00 | 89 | 1021.2 |
| 20260502013546 | 51 | 0 | 0.0 | 0.0 | 0.00 | 0.00 | 0.00 | 89 | 1021.2 |
| 20260502013051 | 51 | 0 | 0.0 | 0.0 | 0.00 | 0.00 | 0.00 | 88 | 1021.3 |
| 20260502012544 | 51 | 0 | 0.0 | 0.0 | 0.00 | 0.00 | 0.00 | 88 | 1021.4 |
| 20260502012044 | 51 | 0 | 0.0 | 0.0 | 0.00 | 0.00 | 0.00 | 88 | 1021.4 |
| 20260502011553 | 51 | 0 | 0.0 | 0.0 | 0.00 | 0.00 | 0.00 | 88 | 1021.3 |
| 20260502011043 | 51 | 0 | 0.0 | 1.0 | 0.00 | 0.00 | 0.00 | 88 | 1021.5 |
| 20260502010545 | 52 | 0 | 0.0 | 1.0 | 0.00 | 0.00 | 0.00 | 88 | 1021.6 |
| 20260502010052 | 52 | 215 | 0.0 | 3.0 | 0.00 | 0.00 | 0.00 | 88 | 1021.7 |
| 20260502005544 | 52 | 0 | 0.0 | 3.0 | 0.00 | 0.00 | 0.00 | 88 | 1021.7 |
| 20260502005044 | 52 | 215 | 1.0 | 4.0 | 0.00 | 0.00 | 0.00 | 88 | 1021.7 |
| 20260502004549 | 52 | 215 | 1.0 | 4.0 | 0.00 | 0.00 | 0.00 | 87 | 1021.8 |
| 20260502004045 | 52 | 214 | 1.0 | 4.0 | 0.00 | 0.00 | 0.00 | 87 | 1021.9 |
| 20260502003543 | 52 | 0 | 0.0 | 4.0 | 0.00 | 0.00 | 0.00 | 87 | 1021.9 |
| 20260502003050 | 52 | 209 | 0.0 | 4.0 | 0.00 | 0.00 | 0.00 | 87 | 1022.0 |
| 20260502002543 | 53 | 0 | 1.0 | 4.0 | 0.00 | 0.00 | 0.00 | 86 | 1022.1 |
| 20260502002043 | 53 | 0 | 0.0 | 5.0 | 0.00 | 0.00 | 0.00 | 86 | 1022.1 |
| 20260502001550 | 53 | 0 | 1.0 | 6.0 | 0.00 | 0.00 | 0.00 | 86 | 1022.1 |
| 20260502001056 | 53 | 236 | 3.0 | 6.0 | 0.00 | 0.00 | 0.00 | 85 | 1022.1 |
| 20260502000543 | 53 | 233 | 2.0 | 4.0 | 0.00 | 0.00 | 0.00 | 85 | 1022.1 |
| 20260502000058 | 53 | 227 | 1.0 | 2.0 | 0.00 | 0.00 | 0.00 | 85 | 1022.0 |
| 20260501235543 | 54 | 0 | 0.0 | 5.0 | 0.00 | 0.00 | 0.00 | 84 | 1022.0 |
| 20260501235046 | 54 | 227 | 2.0 | 5.0 | 0.00 | 0.00 | 0.00 | 84 | 1022.0 |
| 20260501234553 | 54 | 249 | 2.0 | 5.0 | 0.00 | 0.00 | 0.00 | 84 | 1022.0 |
| 20260501234044 | 54 | 250 | 0.0 | 4.0 | 0.00 | 0.00 | 0.00 | 83 | 1022.0 |
| 20260501233544 | 54 | 286 | 1.0 | 4.0 | 0.00 | 0.00 | 0.00 | 83 | 1022.0 |
| 20260501233106 | 54 | 208 | 1.0 | 4.0 | 0.00 | 0.00 | 0.00 | 82 | 1022.1 |
| 20260501232544 | 54 | 221 | 1.0 | 4.0 | 0.00 | 0.00 | 0.00 | 82 | 1022.0 |
| 20260501232043 | 54 | 259 | 1.0 | 4.0 | 0.00 | 0.00 | 0.00 | 82 | 1022.1 |
| 20260501231639 | 55 | 260 | 0.0 | 5.0 | 0.00 | 0.00 | 0.00 | 81 | 1022.1 |
| 20260501231046 | 55 | 0 | 1.0 | 5.0 | 0.00 | 0.00 | 0.00 | 81 | 1022.2 |
| 20260501230543 | 55 | 209 | 2.0 | 5.0 | 0.00 | 0.00 | 0.00 | 81 | 1022.1 |
| 20260501225547 | 55 | 214 | 1.0 | 7.0 | 0.00 | 0.00 | 0.00 | 80 | 1022.1 |
| 20260501225043 | 55 | 0 | 1.0 | 7.0 | 0.00 | 0.00 | 0.00 | 80 | 1022.2 |
| 20260501224605 | 56 | 211 | 3.0 | 7.0 | 0.00 | 0.00 | 0.00 | 80 | 1022.1 |
| 20260501224043 | 56 | 236 | 2.0 | 4.0 | 0.00 | 0.00 | 0.00 | 79 | 1022.1 |
| 20260501223543 | 56 | 200 | 2.0 | 7.0 | 0.00 | 0.00 | 0.00 | 79 | 1022.2 |
| 20260501223100 | 56 | 220 | 3.0 | 7.0 | 0.00 | 0.00 | 0.00 | 79 | 1022.3 |
| 20260501222543 | 56 | 218 | 3.0 | 6.0 | 0.00 | 0.00 | 0.00 | 79 | 1022.2 |
| 20260501222045 | 57 | 228 | 2.0 | 8.0 | 0.00 | 0.00 | 0.00 | 78 | 1022.2 |
| 20260501221606 | 57 | 209 | 3.0 | 7.0 | 0.00 | 0.00 | 0.00 | 78 | 1022.0 |
| 20260501221042 | 57 | 218 | 2.0 | 7.0 | 0.00 | 0.00 | 0.00 | 78 | 1022.0 |
| 20260501220543 | 57 | 232 | 1.0 | 6.0 | 0.00 | 0.00 | 0.00 | 78 | 1022.0 |
| 20260501220055 | 58 | 237 | 2.0 | 6.0 | 0.00 | 0.00 | 0.00 | 77 | 1022.0 |
| 20260501215544 | 58 | 252 | 2.0 | 8.0 | 0.00 | 0.00 | 0.00 | 77 | 1022.0 |
| 20260501215046 | 58 | 211 | 3.0 | 8.0 | 0.00 | 0.00 | 0.00 | 77 | 1022.0 |
| 20260501214551 | 58 | 221 | 2.0 | 9.0 | 0.00 | 0.00 | 0.00 | 77 | 1021.9 |
| 20260501214044 | 59 | 227 | 4.0 | 9.0 | 0.00 | 0.00 | 0.00 | 77 | 1021.9 |